Regional Weather Roundup
Issued by NWS Cleveland, OH

Home | Current Version | Previous Version | Graphics & Text | Print | Product List | Glossary On
Versions: 1 2 3 4 5 6 7 8 9 10 11 12 13 14 15 16 17 18 19 20 21 22 23 24 25 26 27 28 29 30 31 32 33 34 35 36 37 38 39 40 41 42 43 44 45 46 47 48 49 50
000
ASUS41 KCLE 211400
RWRCLE
OHIO REGIONAL WEATHER ROUNDUP
NATIONAL WEATHER SERVICE WILMINGTON, OH
900 AM EST SUN JAN 21 2018

NOTE: "FAIR" INDICATES FEW OR NO CLOUDS BELOW 12,000 FEET WITH NO
SIGNIFICANT WEATHER AND/OR OBSTRUCTIONS TO VISIBILITY.

OHZ001>008-015>018-024>027-034-035-043-044-211500-
   NORTHWEST OHIO

CITY           SKY/WX    TMP DP  RH WIND       PRES   REMARKS
DEFIANCE       FOG       37  36  96 E3        30.05F VSB 1/4
FINDLAY        FOG       39  37  92 S6        30.07S VSB 1/4
TOLEDO EXPRESS FOG       37  37 100 S5        30.06F VSB 1/4
TOLEDO EXEC    FOG       38  37  97 S6        30.08F VSB<1/4
LIMA           FOG       39  39 100 SE8       30.07S VSB 3/4
$$

OHZ009>014-019>023-028>033-038-089-211500-
   NORTHEAST OHIO

CITY           SKY/WX    TMP DP  RH WIND       PRES   REMARKS
CLE-HOPKINS    CLOUDY    41  39  93 S7        30.12S
CLE-LAKEFRONT  CLOUDY    40  37  89 S6        30.09S FOG
CUY CO. ARPT   DRIZZLE   41  37  87 S7        30.10S FOG
LORAIN-ELYRIA  FOG       37  33  85 CALM      30.10R VSB 1
ASHTABULA      CLOUDY    36  35  96 CALM      30.12R FOG
AKRON-CANTON   FOG       39  37  92 SW8       30.10S VSB 1/8
WOOSTER        NOT AVBL
MANSFIELD      FOG       40  40 100 S6        30.09S VSB 1/4
YOUNGSTOWN     LGT RAIN  38  38 100 S6        30.10S VSB 3/4
$$

OHZ042-051>053-060>062-070>072-077>081-211500-
  SOUTHWEST OHIO

CITY           SKY/WX    TMP DP  RH WIND       PRES   REMARKS
CINC-COVINGTON CLOUDY    49  41  74 S8        30.10S
CINC-LUNKEN    CLOUDY    42  40  92 CALM      30.13R
HAMILTON       CLOUDY    46  41  82 CALM      30.11S
DAYTON         NOT AVBL
WRIGHT-PAT AFB CLOUDY    44  44 100 S6        30.09R
DAYTON GENERAL CLOUDY    46  40  79 S8        30.09R
WILMINGTON     CLOUDY    43  38  82 S7        30.10S
$$

OHZ036-037-039>041-045>050-054>059-063>069-073>076-082>088-211500-
  CENTRAL AND SOUTHEAST OHIO

CITY           SKY/WX    TMP DP  RH WIND       PRES   REMARKS
COLUMBUS       CLOUDY    42  42 100 CALM      30.11S
OSU AIRPORT    CLOUDY    42  41  96 CALM      30.10S
BOLTON FIELD   CLOUDY    39  39 100 S3        30.10S
RICKENBACK AFB NOT AVBL
NEWARK         FOG       36  36 100 CALM      30.11S VSB 1/4
MARION         FOG       38  38 100 S7        30.10R VSB 1/4
LANCASTER      CLOUDY    37  37 100 SE5       30.12S
ZANESVILLE     CLOUDY    41  38  89 S7        30.12S
NEW PHILLY     CLOUDY    40  39  97 SE5       30.13S FOG
$$



USA.gov is the U.S. government's official web portal to all federal, state and local government web resources and services.